Tracking 29892 objects as of 21-Nov-2024
HD Live streaming from Space Station
objects crossing your sky now

OBJECT C

Track OBJECT C now!
10-day predictions


NORAD ID: 58498
Int'l Code: 2023-187C
Perigee: 623.2 km
Apogee: 638.9 km
Inclination: 98.0 °
Period: 97.2 minutes
Semi major axis: 7002 km
RCS: Unknown
Launch date: December 4, 2023
Source: People's Republic of China (PRC)
Launch site: Jiuquan Satellite Launch Center, China (JSC)
Your satellite tracking list
Your tracking list is empty




NASA's NSSDC Master Catalog

Two Line Element Set (TLE):
1 58498U 23187C   24326.16409718  .00005377  00000-0  68826-3 0  9993
2 58498  97.9752  41.2522 0011234 203.5495 156.5205 14.81707708 52183
Source of the keplerian elements: AFSPC